Flag Weather past 2 weeks in Niterói, Rio de Janeiro, Brazil

Now
77 °F

Clear.


Feels Like: 79 °F
Forecast: 72 / 87 °F
Wind: 5 mph from Southeast

Location: Galeao

Current Time: Oct 31, 2014 at 5:05:05 AM

Latest Report: Oct 31, 2014 at 4:00 AM


Visibility: 10 mi

Pressure: 29.80 "Hg

Humidity: 74%

Dew point: 68 °F

Location of NiteróiLocation

Historic Weather in Niterói — Graph

°F

Niterói temperature yesterday

Maximum temperature yesterday: 97 °F (at 3:00 PM)
Minimum temperature yesterday: 70 °F (at 4:00 AM)
Average temperature yesterday: 84 °F

Past Weeks' High & Low Weather Summary

 TemperatureHumidityPressure
High97 °F (Oct 30, 3:00 PM)94% (Oct 21, 7:00 AM)30.21 "Hg (Oct 21, 7:00 AM)
Low64 °F (Oct 22, 5:00 AM)27% (Oct 30, 3:00 PM)29.68 "Hg (Oct 19, 4:00 PM)
Average76 °F67%29.96 "Hg
* Reported Oct 16 3:00 AM — Oct 31 4:00 AM, Niterói, Weather by CustomWeather, © 2014

Note: Actual official high and low records may vary slightly from our data, if they occured in-between our weather recording intervals... More about our weather records

Advertising

Niterói weather history for previous 24 hours

 ConditionsComfort  
Time TempWeatherWind HumidityBarometerVisibility
4:00 AM
Oct 31
77 °FClear.5 mph74%29.80 "Hg10 mi
3:00 AM79 °FClear.3 mph65%29.80 "Hg10 mi
2:00 AM79 °FClear.3 mph61%29.83 "Hg10 mi
1:00 AM81 °FClear.3 mph58%29.83 "Hg10 mi
12:00 AM82 °FClear.5 mph55%29.83 "Hg10 mi
11:00 PM
Oct 30
84 °FClear.1 mph48%29.83 "Hg10 mi
10:00 PM86 °FClear.7 mph43%29.83 "Hg10 mi
9:00 PM86 °FClear.6 mph49%29.80 "Hg10 mi
8:00 PM88 °FClear.10 mph43%29.77 "Hg10 mi
7:00 PM90 °FPassing clouds.8 mph41%29.74 "HgN/A
6:00 PM93 °FPassing clouds.7 mph28%29.74 "HgN/A
5:00 PM95 °FPassing clouds.6 mph28%29.74 "HgN/A
4:00 PM97 °FPassing clouds.9 mph27%29.74 "HgN/A
3:00 PM97 °FPassing clouds.8 mph27%29.74 "Hg10 mi
2:00 PM95 °FPassing clouds.9 mph28%29.77 "HgN/A
1:00 PM93 °FPassing clouds.13 mph30%29.80 "HgN/A
12:00 PM91 °FSunny.9 mph34%29.80 "Hg10 mi
11:00 AM90 °FSunny.12 mph38%29.83 "Hg10 mi
10:00 AM86 °FPassing clouds.8 mph46%29.83 "HgN/A
9:00 AM82 °FSunny.7 mph51%29.83 "Hg10 mi
8:00 AM79 °FSunny.2 mph61%29.83 "Hg10 mi
7:00 AM73 °FSunny.2 mph74%29.80 "Hg10 mi
6:00 AM70 °FClear.2 mph78%29.80 "Hg10 mi
5:00 AM70 °FClear.3 mph83%29.77 "Hg10 mi
Weather by CustomWeather, © 2014

See weather overviewHow to use our weather pages